GPS BIIF-10 (40730 NORAD) Tracking and Keplerian Element Data

This shows tracking and keplerian element data for the satellite.

Feedback or suggestion? Click here.




ElementValue
Catalog40730
NameGPS BIIF-10
Epoch Orbit4518
Epoch Day258.66531063
Epoch Year2021
RAAN337.7309
Inclination55.3688
Eccentricity0.0064706
Argument of Perigee1.1073
Mean Anonmoly358.9528
Mean Motion2.00566205
Decay Rate-8.5E-07
L11 40730U 15033A 21258.66531063 -.00000085 00000-0 00000-0 0 9998
L22 40730 55.3688 337.7309 0064706 1.1073 358.9528 2.00566205 45182

Live tracking and technical data element details for GPS BIIF-10 (NORAD 40730). GPS BIIF-10 can be tracked NOW for your location showing map with azimuth and elevation plus other details from your city location.

Track the satellite on the map from your city or location and see movement details for azimuth, elevation, latitude, longitude, range, height, and movement on the map or in text.







IsCatalogInMostPopularTable: catalog: 40730, numindb: 643
Update: records affected: 1



GetName: 40730 GPS BIIF-10

Hit Count: updated at: Sat, 18 Sep 2021 09:35:01 GMT